Regional Weather Roundup
Issued by NWS

Home | Current Version | Previous Version | Graphics & Text | Print | Product List | Glossary On
Versions: 1 2 3 4 5 6 7 8 9 10 11 12 13 14 15 16 17 18 19 20 21 22 23 24 25 26 27 28 29 30 31 32 33 34 35 36 37 38 39 40 41 42 43 44 45 46 47 48 49 50
000
ASUS43 KOAX 171202
RWRNE

WEATHER ROUNDUP FOR NEBRASKA
NATIONAL WEATHER SERVICE OMAHA NE
600 AM CST SAT FEB 17 2018

NOTES: SATELLITE DATA IS BEING USED TO AUGMENT CLOUD COVER ABOVE
       12000 FEET.
       "FAIR" INDICATES FEW OR NO CLOUDS BELOW 12,000 FEET WITH NO
       SIGNIFICANT WEATHER AND/OR OBSTRUCTIONS TO VISIBILITY.


NEZ001>004-019>022-054>056-171300-
NEBRASKA PANHANDLE

CITY           SKY/WX    TMP DP  RH WIND       PRES   REMARKS
SCOTTSBLUFF    CLEAR     27  18  69 W8        29.93R WCI  19
6HR MIN TEMP:  26; 6HR MAX TEMP:  37;

ALLIANCE       CLEAR     19  15  84 W12       29.90R WCI   7
6HR MIN TEMP:  19; 6HR MAX TEMP:  33;

CHADRON        CLEAR     15  13  91 W8        29.90R WCI   4
6HR MIN TEMP:  14; 6HR MAX TEMP:  24;

GORDON         FAIR      20  15  82 W7        29.88R WCI  11
6HR MIN TEMP:  20; 6HR MAX TEMP:  31;

KIMBALL        CLEAR     30  15  53 NW18G28   29.94R WCI  18
SIDNEY         CLEAR     21  14  74 W8        29.93R WCI  11
6HR MIN TEMP:  21; 6HR MAX TEMP:  37;

$$

NEZ057>060-069>072-079>082-171300-
SOUTHWEST NEBRASKA

CITY           SKY/WX    TMP DP  RH WIND       PRES   REMARKS
NORTH PLATTE   PTCLDY    23  19  85 W7        29.91R WCI  15
6HR MIN TEMP:  22; 6HR MAX TEMP:  31;

IMPERIAL       CLEAR     33  20  58 NW10      29.94R WCI  25
6HR MIN TEMP:  27; 6HR MAX TEMP:  36;

LEXINGTON      CLEAR     24  18  79 NW3       29.91R
MCCOOK         CLEAR     29  22  75 W14       29.92R WCI  18
6HR MIN TEMP:  24; 6HR MAX TEMP:  30;

OGALLALA       CLEAR     32  20  62 NW13      29.92R WCI  22
$$

NEZ005>010-023>029-035>040-094-171300-
NORTH CENTRAL NEBRASKA

CITY           SKY/WX    TMP DP  RH WIND       PRES   REMARKS
VALENTINE      PTCLDY    27  21  78 NW8       29.89R WCI  19
6HR MIN TEMP:  27; 6HR MAX TEMP:  34;

AINSWORTH      CLOUDY    27  24  87 W6        29.87R WCI  21
BROKEN BOW     PTCLDY    28  20  71 W7        29.86R WCI  21
6HR MIN TEMP:  24; 6HR MAX TEMP:  30;

O`NEILL        CLOUDY    26  22  84 W7        29.85R WCI  19
ORD            PTCLDY    28  21  75 W13       29.85R WCI  17
6HR MIN TEMP:  26; 6HR MAX TEMP:  29;

THEDFORD         N/A     30  25  82 W8        29.89R WCI  22
$$

NEZ041-046>049-061>064-073>077-083>087-171300-
SOUTH CENTRAL NEBRASKA

CITY           SKY/WX    TMP DP  RH WIND       PRES   REMARKS
GRAND ISLAND   CLEAR     27  17  66 W17       29.88R WCI  14
6HR MIN TEMP:  27; 6HR MAX TEMP:  29;

AURORA         PTCLDY    27  17  68 SW14      29.87R WCI  15
HASTINGS       CLEAR     23  16  74 W9        29.89R WCI  13
6HR MIN TEMP:  23; 6HR MAX TEMP:  28;

HEBRON         CLOUDY    26  17  70 SW3       29.90F
HOLDREGE       CLEAR     26  19  75 W10       29.90R WCI  15
KEARNEY        CLEAR     27  18  69 W16       29.91R WCI  15
YORK           CLOUDY    25  19  80 SW12      29.88R WCI  14
$$

NEZ011>018-030>034-042>045-171300-
NORTHEAST NEBRASKA

CITY           SKY/WX    TMP DP  RH WIND       PRES   REMARKS
NORFOLK        CLOUDY    27  19  72 W8        29.85R WCI  19
6HR MIN TEMP:  26; 6HR MAX TEMP:  27; 6HR PCP: TRACE;

ALBION         CLOUDY    29  20  70 W3        29.85R
BLAIR          MOCLDY    29  18  62 S10       29.87F WCI  20
COLUMBUS       MOCLDY    27  18  69 SW9       29.88R WCI  18
FREMONT        CLOUDY    28  18  65 S6        29.88F WCI  21
TEKAMAH        CLOUDY    27  19  72 S8        29.89F WCI  19
6HR MIN TEMP:  25; 6HR MAX TEMP:  27;

WAYNE          CLOUDY    27  24  90 SW8       29.86S WCI  18
$$

NEZ050>053-065>068-078-088>093-171300-
SOUTHEAST NEBRASKA

CITY           SKY/WX    TMP DP  RH WIND       PRES   REMARKS
LINCOLN        CLOUDY    28  17  63 S8        29.90F WCI  20
6HR MIN TEMP:  23; 6HR MAX TEMP:  30;

OMAHA EPPLEY   CLOUDY    30  16  56 S12       29.90F WCI  20
6HR MIN TEMP:  27; 6HR MAX TEMP:  30;

BEATRICE       CLOUDY    29  19  67 SW7       29.90S WCI  22
FALLS CITY     CLOUDY    31  14  49 SE6       29.92F WCI  25
6HR MIN TEMP:  22; 6HR MAX TEMP:  31;

NEBRASKA CITY  CLOUDY    30  18  60 S9        29.89F WCI  22
PLATTSMOUTH    CLOUDY    28  17  62 SE6       29.90S WCI  22
$$

NEZ044-045-051>053-067-171300-
OMAHA AREA

CITY           SKY/WX    TMP DP  RH WIND       PRES   REMARKS
OMAHA EPPLEY   CLOUDY    30  16  56 S12       29.90F WCI  20
6HR MIN TEMP:  27; 6HR MAX TEMP:  30;

BLAIR          MOCLDY    29  18  62 S10       29.87F WCI  20
FREMONT        CLOUDY    28  18  65 S6        29.88F WCI  21
MILLARD        CLOUDY    29  18  61 SE5       29.91F WCI  24
OFFUTT AFB     CLOUDY    26  16  66 SE6       29.90F WCI  19
PLATTSMOUTH    CLOUDY    28  17  62 SE6       29.90S WCI  22
WAHOO          FAIR      25  17  71 S6        29.88F WCI  18
$$




USA.gov is the U.S. government's official web portal to all federal, state and local government web resources and services.